Location: Barruelo
(41.2448°N, 3.8231°W)
Time: 08:29:17
(UTC+00:00)

Cosmos 2227 Rocket - Pass Details

Date: 22 March 2026
Orbit: 836 x 845 km, 71.0° (Epoch: 18 April)

Event Time Altitude Azimuth Distance (km) Brightness Sun altitude
Rises 20:00:04 0° 346° (NNW) 3,414 5.8 -17.6°
Reaches altitude 10° 20:03:07 10° 2° (N) 2,475 4.8 -18.1°
Maximum altitude 20:07:27 22° 52° (NE) 1,773 3.6 -18.9°
Enters shadow 20:08:09 21° 62° (ENE) 1,794 3.5 -19.0°
